Regional Weather Roundup
Issued by NWS

Home | Current Version | Previous Version | Graphics & Text | Print | Product List | Glossary On
Versions: 1 2 3 4 5 6 7 8 9 10 11 12 13 14 15 16 17 18 19 20 21 22 23 24 25 26 27
000
ASUS45 KPSR 251810
RWRAZ

ARIZONA HOURLY REGIONAL WEATHER ROUNDUP
NATIONAL WEATHER SERVICE PHOENIX AZ
1100 AM MST THU AUG 25 2016

NOTE: FAIR INDICATES FEW OR NO CLOUDS BELOW 12,000 FEET WITH NO
SIGNIFICANT WEATHER AND/OR OBSTRUCTIONS TO VISIBILITY.

AZZ001>003-036-251900-
NORTHWEST ARIZONA

CITY           SKY/WX    TMP DP  RH WIND       PRES   REMARKS
BULLHEAD CITY  SUNNY     99  50  19 SW13      29.87F
KINGMAN        SUNNY     90  47  22 SW12      30.06F
6HR MIN TEMP:  67; 6HR MAX TEMP:  91;

$$

AZZ004>008-015-016-018-251900-
NORTH CENTRAL ARIZONA

CITY           SKY/WX    TMP DP  RH WIND       PRES   REMARKS
GRAND CANYON   SUNNY     77  45  32 SW12G17   30.29F
6HR MIN TEMP:  43; 6HR MAX TEMP:  77;

PRESCOTT       MOSUNNY   79  53  40 VRB3      30.21F
6HR MIN TEMP:  55; 6HR MAX TEMP:  79;

FLAGSTAFF      MOSUNNY   71  47  42 SW12      30.32F
6HR MIN TEMP:  44; 6HR MAX TEMP:  71;

PAYSON         SUNNY     79  50  36 NW7G13    30.25F
PAGE           MOSUNNY   79  45  29 CALM      30.11F
6HR MIN TEMP:  66; 6HR MAX TEMP:  80;

$$

AZZ009>014-017-251900-
NORTHEAST ARIZONA

CITY           SKY/WX    TMP DP  RH WIND       PRES   REMARKS
WINSLOW        SUNNY     82  46  28 VRB3      30.18F
6HR MIN TEMP:  56; 6HR MAX TEMP:  83;

SAINT JOHNS    SUNNY     80  42  25 CALM      30.24F
6HR MIN TEMP:  50; 6HR MAX TEMP:  80;

WINDOW ROCK    SUNNY     79  43  27 E6        30.30F
6HR MIN TEMP:  44; 6HR MAX TEMP:  79;

SHOW LOW       SUNNY     73  37  27 W6        30.29F
$$

AZZ023-251900-
GREATER PHOENIX AREA

CITY           SKY/WX    TMP DP  RH WIND       PRES   REMARKS
PHOENIX        MOSUNNY   94  52  24 VRB5      29.94F
6HR MIN TEMP:  77; 6HR MAX TEMP:  94;

BUCKEYE        SUNNY     91  50  24 SE5       29.96F
GLENDALE       MOSUNNY   93  52  24 CALM      29.96F
LUKE AFB       SUNNY     94  51  23 VRB3      29.93F
6HR MIN TEMP:  78; 6HR MAX TEMP:  94;

DEER VALLEY    SUNNY     92  53  26 CALM      29.96F
6HR MIN TEMP:  77; 6HR MAX TEMP:  92;

SCOTTSDALE     SUNNY     92  50  23 CALM      29.98F
6HR MIN TEMP:  76; 6HR MAX TEMP:  93;

MESA-GATEWAY   MOSUNNY   91  54  27 VRB5      29.98F
CHANDLER       MOSUNNY   93  52  24 CALM      29.96F
$$

AZZ027-028-251900-
SOUTHWEST MARICOPA COUNTY AND PINAL COUNTY

CITY           SKY/WX    TMP DP  RH WIND       PRES   REMARKS
CASA GRANDE    SUNNY     93  50  22 SW7       29.99F
6HR MIN TEMP:  73; 6HR MAX TEMP:  93;

GILA BEND      MOSUNNY   97  48  18 SW7       29.92F
6HR MIN TEMP:  80; 6HR MAX TEMP:  97;

$$

AZZ503-504-507>509-251900-
SOUTHEAST ARIZONA

CITY           SKY/WX    TMP DP  RH WIND       PRES   REMARKS
TUCSON         SUNNY     91  50  24 VRB5      30.07F
6HR MIN TEMP:  72; 6HR MAX TEMP:  91;

DAVIS-MONTHAN  SUNNY     88  52  29 VRB1      30.06F
6HR MIN TEMP:  71; 6HR MAX TEMP:  88;

RYAN FIELD     SUNNY     90  52  27 CALM      30.06F
NOGALES        PTSUNNY   84  54  35 VRB3      30.15F
6HR MIN TEMP:  60; 6HR MAX TEMP:  85;

SIERRA VISTA   MOSUNNY   84  47  28 VRB6      30.20F
6HR MIN TEMP:  62; 6HR MAX TEMP:  84;

DOUGLAS        SUNNY     82  54  37 SW6       30.16F
6HR MIN TEMP:  57; 6HR MAX TEMP:  82;

SAFFORD        SUNNY     88  47  24 S3        30.08F
6HR MIN TEMP:  62; 6HR MAX TEMP:  88;

$$

AZZ020-021-025-026-031-251900-
SOUTHWEST ARIZONA

CITY           SKY/WX    TMP DP  RH WIND       PRES   REMARKS
YUMA           SUNNY     97  67  37 S16       29.87F HX 101
6HR MIN TEMP:  83; 6HR MAX TEMP:  97;

$$

CAZ031-033-041-043-047-048-061-251900-
SOUTHERN CALIFORNIA

CITY           SKY/WX    TMP DP  RH WIND       PRES   REMARKS
DOWNTOWN L.A.  SUNNY     75  60  59 CALM      29.95F
6HR MIN TEMP:  63; 6HR MAX TEMP:  75;

L.A. AIRPORT   MOSUNNY   72  60  66 VRB6      29.96F
6HR MIN TEMP:  64; 6HR MAX TEMP:  72;

SAN DIEGO      MOSUNNY   73  61  65 VRB5      29.99S
6HR MIN TEMP:  66; 6HR MAX TEMP:  74;

BURBANK        SUNNY     74  58  57 VRB5      29.96F
6HR MIN TEMP:  64; 6HR MAX TEMP:  74;

ONTARIO        SUNNY     79  57  46 SE5       29.97S
6HR MIN TEMP:  64; 6HR MAX TEMP:  80;

RIVERSIDE      SUNNY     79  58  48 W6        29.96F
6HR MIN TEMP:  64; 6HR MAX TEMP:  79;

PALM SPRINGS   SUNNY     93  59  31 VRB6      29.89F
6HR MIN TEMP:  78; 6HR MAX TEMP:  93;

EL CENTRO NAS  SUNNY     96  62  32 CALM      29.85F
6HR MIN TEMP:  76; 6HR MAX TEMP:  96;

IMPERIAL       SUNNY     98  66  34 E8        29.83F HX 101
6HR MIN TEMP:  81; 6HR MAX TEMP:  98;

BLYTHE         SUNNY     97  62  31 S17G25    29.87F
6HR MIN TEMP:  83; 6HR MAX TEMP:  97;

NEEDLES        MOSUNNY  100  47  16 S7        29.88F
6HR MIN TEMP:  85; 6HR MAX TEMP: 101;

$$

NVZ020-UTZ003-251900-
SOUTHERN NEVADA-UTAH

CITY           SKY/WX    TMP DP  RH WIND       PRES   REMARKS
LAS VEGAS      MOSUNNY   96  30   9 S9G18     29.90F
6HR MIN TEMP:  82; 6HR MAX TEMP:  96;

SALT LAKE CITY PTSUNNY   74  26  16 VRB5      30.09F
6HR MIN TEMP:  55; 6HR MAX TEMP:  74;

$$

NMZ009-TXZ055-251900-
NEW MEXICO-WEST TEXAS

CITY           SKY/WX    TMP DP  RH WIND       PRES   REMARKS
ALBUQUERQUE    MOSUNNY   75  47  36 SW5       30.26F
6HR MIN TEMP:  58; 6HR MAX TEMP:  75;

EL PASO        MOSUNNY   81  55  40 VRB3      30.16F
6HR MIN TEMP:  68; 6HR MAX TEMP:  81;

$$


........................KEY........................
SKY/WX - SKY CONDITION/WEATHER
TMP    - TEMPERATURE IN FAHRENHEIT
DP     - DEW POINT IN FAHRENHEIT
RH     - RELATIVE HUMIDITY IN PERCENT
WIND   - DIRECTION AND SPEED IN MILES PER HOUR (MPH)
VRB    - VARIABLE WIND DIRECTION
PRES   - MEAN SEA LEVEL PRESSURE IN INCHES OF MERCURY
         F - FALLING PRESSURE   R - RISING PRESSURE
         S - STEADY PRESSURE
VSB    - VISIBILITY IN MILES
HX     - HEAT INDEX IN FAHRENHEIT
WCI    - WIND CHILL INDEX IN FAHRENHEIT
TC     - TEMPERATURE IN CELSIUS WHICH IS ALSO KNOWN AS
         TEMPERATURE IN CENTIGRADE
AFB    - AIR FORCE BASE
         LUKE AFB IS LUKE AIR FORCE BASE
         DAVIS-MONTHAN IS DAVIS-MONTHAN AIR FORCE BASE
NAS    - NAVAL AIR STATION
         EL CENTRO NAS IS EL CENTRO NAVAL AIR STATION
N/A    - NOT AVAILABLE





USA.gov is the U.S. government's official web portal to all federal, state and local government web resources and services.